Weather History for Oelwein, IA

Change the Weather History Date:

Friday, March 16, 2012

  Actual Average Record
Temperature  
Mean Temperature 64 °F -  
Max Temperature 78 °F 42 °F 78 °F (2012)
Min Temperature 50 °F 24 °F 1 °F (1951)
Degree Days  
Heating Degree Days 1    
Growing Degree Days 14 (Base 50)    
Moisture  
Dew Point 51 °F    
Average Humidity 66    
Maximum Humidity 100    
Minimum Humidity 39    
Precipitation  
Precipitation 0.00 in - - ()
Sea Level Pressure  
Sea Level Pressure 29.94 in    
Wind  
Wind Speed 8 mph (SSE)    
Max Wind Speed 18 mph    
Max Gust Speed 25 mph    
Visibility 8 miles    
Events      
Averages and records for this station are not official NWS values.
T = Trace of Precipitation, MM = Missing Value Source: NWS Daily Summary

Daily Weather History Graph

Daily Weather History Graph

Search for Another Location

Airport:

Trip Planner

Search our weather history database for the weather conditions in past years. The results will help you decide how hot, cold, wet, or windy it might be!

Date:

Astronomy

Mar. 16, 2012 Rise Set
Actual Time 7:17 AM CDT 7:16 PM CDT
Civil Twilight 6:49 AM CDT 7:44 PM CDT
Nautical Twilight 6:16 AM CDT 8:17 PM CDT
Astronomical Twilight 5:42 AM CDT 8:50 PM CDT
Moon 3:43 AM CDT (3/16) 1:29 PM CDT (3/16)
Length of Visible Light 12h 55m
Length of Day
11h 58m
Waning Crescent, 32% of the Moon is Illuminated
Mar 16
Waning Crescent
Mar 22
New
Mar 30
First Quarter
Apr 6
Full
Apr 13
Last Quarter

Hourly Weather History & Observations

Time (CDT) Temp. Dew Point Humidity Pressure Visibility Wind Dir Wind Speed Gust Speed Precip Events Conditions
12:15 AM 55.4 °F 41.0 °F 58% 29.98 in 10.0 mi East 5.8 mph - N/A   Clear
12:35 AM 53.6 °F 41.0 °F 62% 29.97 in 10.0 mi East 4.6 mph - N/A   Clear
12:55 AM 55.4 °F 41.0 °F 58% 29.97 in 10.0 mi ESE 5.8 mph - N/A   Clear
1:15 AM 51.8 °F 41.0 °F 67% 29.97 in 10.0 mi East 6.9 mph - N/A   Clear
1:35 AM 53.6 °F 42.8 °F 67% 29.97 in 10.0 mi ESE 4.6 mph - N/A   Clear
1:55 AM 53.6 °F 42.8 °F 67% 29.97 in 10.0 mi ESE 6.9 mph - N/A   Clear
2:15 AM 51.8 °F 42.8 °F 71% 29.97 in 10.0 mi ESE 6.9 mph - N/A   Clear
2:35 AM 51.8 °F 42.8 °F 71% 29.97 in 10.0 mi ESE 9.2 mph - N/A   Clear
2:55 AM 51.8 °F 42.8 °F 71% 29.97 in 10.0 mi SE 6.9 mph - N/A   Clear
3:35 AM 50.0 °F 42.8 °F 76% 29.96 in 10.0 mi SE 8.1 mph - N/A   Clear
3:55 AM 51.8 °F 44.6 °F 76% 29.96 in 10.0 mi SE 8.1 mph - N/A   Clear
4:15 AM 50.0 °F 44.6 °F 82% 29.96 in 7.0 mi SE 8.1 mph - N/A   Clear
4:35 AM 51.8 °F 46.4 °F 82% 29.96 in 7.0 mi SSE 8.1 mph - N/A   Clear
4:55 AM 50.0 °F 46.4 °F 87% 29.96 in 5.0 mi SE 8.1 mph - N/A   Clear
5:15 AM 51.8 °F 48.2 °F 88% 29.97 in 5.0 mi SE 6.9 mph - N/A   Clear
5:35 AM 51.8 °F 48.2 °F 88% 29.97 in 5.0 mi SE 8.1 mph - N/A   Clear
5:55 AM 51.8 °F 50.0 °F 94% 29.97 in 4.0 mi SE 5.8 mph - N/A   Clear
6:15 AM 51.8 °F 48.2 °F 88% 29.97 in 3.0 mi SE 5.8 mph - N/A   Clear
6:35 AM 50.0 °F 48.2 °F 94% 29.97 in 2.5 mi SE 5.8 mph - N/A   Clear
6:55 AM 50.0 °F 48.2 °F 94% 29.97 in 2.0 mi SE 5.8 mph - N/A   Clear
7:15 AM 50.0 °F 48.2 °F 94% 29.97 in 1.5 mi SE 5.8 mph - N/A   Mist
7:35 AM 50.0 °F 50.0 °F 100% 29.97 in 0.8 mi SE 6.9 mph - N/A   Mist
7:55 AM 51.8 °F 51.8 °F 100% 29.97 in 1.5 mi SE 8.1 mph - N/A   Mist
8:15 AM 53.6 °F 51.8 °F 94% 29.98 in 1.2 mi SE 6.9 mph - N/A   Mist
8:35 AM 53.6 °F 51.8 °F 94% 29.99 in 1.2 mi SE 5.8 mph - N/A   Mist
8:55 AM 55.4 °F 53.6 °F 94% 29.99 in 1.5 mi SE 8.1 mph - N/A   Mostly Cloudy
9:15 AM 59.0 °F 55.4 °F 88% 29.99 in 2.0 mi SSE 9.2 mph - N/A   Mist
9:35 AM 60.8 °F 57.2 °F 88% 29.99 in 3.0 mi SSE 8.1 mph - N/A   Mostly Cloudy
9:55 AM 62.6 °F 57.2 °F 82% 29.99 in 5.0 mi South 9.2 mph - N/A   Haze
11:15 AM 68.0 °F 59.0 °F 73% 29.97 in 10.0 mi South 8.1 mph - N/A   Clear
11:35 AM 69.8 °F 59.0 °F 68% 29.97 in 7.0 mi South 8.1 mph - N/A   Clear
11:55 AM 71.6 °F 59.0 °F 64% 29.97 in 10.0 mi South 6.9 mph - N/A   Clear
12:15 PM 71.6 °F 59.0 °F 64% 29.96 in 10.0 mi SSE 10.4 mph - N/A   Clear
12:35 PM 73.4 °F 59.0 °F 61% 29.96 in 10.0 mi South 9.2 mph - N/A   Clear
12:55 PM 75.2 °F 59.0 °F 57% 29.95 in 10.0 mi South 11.5 mph - N/A   Clear
1:15 PM 77.0 °F 57.2 °F 50% 29.94 in 10.0 mi South 13.8 mph - N/A   Clear
1:35 PM 75.2 °F 55.4 °F 50% 29.94 in 10.0 mi South 12.7 mph 19.6 mph N/A   Clear
1:55 PM 77.0 °F 55.4 °F 47% 29.93 in 10.0 mi South 15.0 mph 20.7 mph N/A   Clear
2:15 PM 78.8 °F 55.4 °F 44% 29.92 in 10.0 mi SSE 17.3 mph 20.7 mph N/A   Clear
2:35 PM 78.8 °F 55.4 °F 44% 29.92 in 10.0 mi South 17.3 mph 21.9 mph N/A   Clear
2:55 PM 78.8 °F 55.4 °F 44% 29.90 in 10.0 mi South 13.8 mph 24.2 mph N/A   Clear
3:15 PM 77.0 °F 55.4 °F 47% 29.90 in 10.0 mi South 16.1 mph - N/A   Clear
3:35 PM 78.8 °F 53.6 °F 42% 29.89 in 10.0 mi SSE 17.3 mph - N/A   Clear
3:55 PM 78.8 °F 53.6 °F 42% 29.89 in 10.0 mi South 11.5 mph - N/A   Clear
4:15 PM 78.8 °F 53.6 °F 42% 29.89 in 10.0 mi South 18.4 mph 25.3 mph N/A   Clear
4:35 PM 78.8 °F 53.6 °F 42% 29.89 in 10.0 mi South 13.8 mph 24.2 mph N/A   Clear
4:55 PM 77.0 °F 53.6 °F 44% 29.88 in 10.0 mi South 17.3 mph 21.9 mph N/A   Clear
5:15 PM 77.0 °F 53.6 °F 44% 29.88 in 10.0 mi South 13.8 mph 18.4 mph N/A   Clear
5:35 PM 77.0 °F 51.8 °F 41% 29.88 in 10.0 mi South 16.1 mph 24.2 mph N/A   Clear
5:55 PM 77.0 °F 51.8 °F 41% 29.88 in 10.0 mi South 17.3 mph - N/A   Clear
6:15 PM 77.0 °F 50.0 °F 39% 29.88 in 10.0 mi South 13.8 mph - N/A   Clear
6:35 PM 73.4 °F 51.8 °F 47% 29.88 in 10.0 mi South 12.7 mph 19.6 mph N/A   Clear
6:55 PM 71.6 °F 51.8 °F 50% 29.88 in 10.0 mi South 10.4 mph - N/A   Clear
7:15 PM 69.8 °F 51.8 °F 53% 29.89 in 10.0 mi South 10.4 mph - N/A   Clear
7:35 PM 68.0 °F 51.8 °F 56% 29.89 in 10.0 mi South 9.2 mph - N/A   Clear
7:55 PM 68.0 °F 51.8 °F 56% 29.89 in 10.0 mi South 10.4 mph - N/A   Clear
8:15 PM 64.4 °F 50.0 °F 59% 29.89 in 10.0 mi SSE 8.1 mph - N/A   Clear
8:35 PM 64.4 °F 50.0 °F 59% 29.90 in 10.0 mi SSE 8.1 mph - N/A   Clear
8:55 PM 64.4 °F 51.8 °F 64% 29.90 in 10.0 mi SSE 10.4 mph - N/A   Clear
9:15 PM 62.6 °F 51.8 °F 68% 29.90 in 10.0 mi SSE 10.4 mph - N/A   Clear
9:35 PM 62.6 °F 51.8 °F 68% 29.91 in 10.0 mi SSE 10.4 mph - N/A   Clear
9:55 PM 62.6 °F 51.8 °F 68% 29.91 in 10.0 mi SSE 11.5 mph - N/A   Clear
10:15 PM 62.6 °F 51.8 °F 68% 29.92 in 10.0 mi SSE 11.5 mph 17.3 mph N/A   Clear
10:35 PM 62.6 °F 53.6 °F 72% 29.92 in 10.0 mi SSE 11.5 mph - N/A   Clear
10:55 PM 62.6 °F 53.6 °F 72% 29.92 in 10.0 mi SSE 11.5 mph - N/A   Clear
11:15 PM 62.6 °F 55.4 °F 77% 29.92 in 10.0 mi SSE 12.7 mph - N/A   Clear
11:35 PM 64.4 °F 55.4 °F 73% 29.92 in 10.0 mi SSE 12.7 mph - N/A   Clear
11:55 PM 64.4 °F 55.4 °F 73% 29.92 in 10.0 mi SSE 13.8 mph - N/A   Clear